SL-16 DEB

Satellite information

Favourite Embed

Satellite Type and Status

DEBRISIN ORBIT

Key statistics

Satellite SL-16 DEB at a glance.

Uptime

11881

Days in orbit

Revolutions

≈ 13.8

Per day

Orbit

LEO

Low Earth Orbit

Inclination

70.9

Latest

Satellite identification and parameters

Extended collection of information and parameters for SL-16 DEB.

Object identification

Identified? True

Debris? True

Object name: SL-16 DEB

International designator: 1992-093CY

Object number (NORAD): 22407

Object ID (CCSDS): 22407

Country: COMMONWEALTH OF INDEPENDENT STATES (CIS)

Current information (Y/N): Y

RCS size: SMALL

Orbital parameters

Period: 104.057 minutes

Inclination: 70.8601 deg

SMA: 7328.398 km

Apoapsis: 1081.659 km

Periapsis: 818.868 km

RAAN: 277.2321 deg

Eccentricy: 0.0179296

Argument of periapsis: 176.3989 deg

Mean anomaly: 183.8456 deg

Mean motion: 13.83850424 rev/day

Mean motion (dot): 0.00000423 rev/day2

B* drag term: 0.00037237 1/REarth

Two-line elements (TLE)

Creation date: July 5, 2025, 10:36 p.m.

Reference frame: TEME

Reference center: EARTH

Epoch: July 5, 2025, 4:29 p.m. UTC

TLE line 0: 0 SL-16 DEB

TLE line 1: 1 22407U 92093CY 25186.68724617 .00000423 00000-0 37237-3 0 9995

TLE line 2: 2 22407 70.8601 277.2321 0179296 176.3989 183.8456 13.83850424636389

Live tracking on map

Real-time ground track for satellite SL-16 DEB.

In-orbit conjunctions

A list of the most updated potential collisions computed for object SL-16 DEB.

Target Orbit TCA Probability of collision Miss distance Type
THORAD AGENA D DEB SSO 2025-05-04 19:08:07 0.0002335334 68.0 (m) DEBRIS

Associated space launch

Second generation ELING satellite

SL-16 DEB was lifted into orbit during the mission ‘Zenit-2 | Tselina-2 12’, on board a Zenit-2 space rocket.

The launch took place on Dec. 25, 1992, 5:56 a.m. from 45/1.

For more information about the launch, click the button.

Launch to space Zenit-2 | Tselina-2 12
Zenit-2 | Tselina-2 12

Agency: N/A

Status: Launch Successful

Launch date: Dec. 25, 1992, 5:56 a.m. UTC

Rocket: Zenit-2

Launch pad: 45/1

Location: Baikonur Cosmodrome, Republic of Kazakhstan

...

Latest news about this satellite

There are no fresh news available about this satellite. Check back as we update our databases every day.


Newsletter sign-up

Weekly statistics, charts and insights to help you stay on top of the space industry.